(°C)
-3°
-4°
-6°
-9°
-10°
-11°
-11°
(°C)
-7°
-8°
-10°
-13°
-14°
-15°
-15°
S
S
SSE
SE
SE
ESE
ESE
(km/h)
7-15
5-12
4-10
4-9
3-8
4-8
5-10
(mm)
0
0
0
0
0
0
0
(%)
0
0
0
0
0
0
0

Elevação do sol

/ -57.5°
sun-icon
UV 1
08:57
17:11
Crescente (17°)
10:24
17:46

METAR para 51.02°N 71.47°L (UACC)

Hora Condições Temperatura/
Ponto de condensação
Vento Visibilidade Tempo Nuvens Pressão Mudança Bruto
LIFR -3°C / -4°C 170º 8kt 5000m Mist Vertical Visibility of 0ft. 1027 No Significant change UACC 042000Z 17004MPS 5000 BR OVC002 M03/M04 Q1027 NOSIG RMK QBB060 QFE738/0985
LIFR -4°C / -4°C 180º 8kt 4800m Mist Vertical Visibility of 0ft. 1027 No Significant change UACC 041930Z 18004MPS 4800 BR OVC002 M04/M04 Q1027 NOSIG RMK QBB080 QFE739/0985
LIFR -4°C / -5°C 180º 10kt 1200m. Runway 22: Visual range is 2000m and increasing. Mist Vertical Visibility of 0ft. 1027 No Significant change UACC 041900Z 18005MPS 1200 R22/P2000U BR OVC002 M04/M05 Q1027 NOSIG RMK QBB060 QFE739/0985
LIFR -4°C / -5°C 180º 8kt 2100m Mist Vertical Visibility of 0ft. 1027 No Significant change UACC 041830Z 18004MPS 2100 BR OVC002 M04/M05 Q1027 NOSIG RMK QBB060 QFE739/0985
LIFR -4°C / -5°C 190º 6kt 5000m Mist Vertical Visibility of 0ft. 1028 No Significant change UACC 041800Z 19003MPS 5000 BR OVC002 M04/M05 Q1028 NOSIG RMK QBB070 QFE739/0986
LIFR -5°C / -6°C 180º 8kt 7000m - Overcast 300ft 1028 No Significant change UACC 041730Z 18004MPS 7000 OVC003 M05/M06 Q1028 NOSIG RMK QBB110 QFE739/0986
LIFR -5°C / -5°C 190º 8kt 1100m. Runway 22: Visual range is 2000m and decreasing. Mist Vertical Visibility of 0ft. 1028 No Significant change UACC 041700Z 19004MPS 1100 R22/P2000D BR OVC002 M05/M05 Q1028 NOSIG RMK QBB070 QFE739/0986
LIFR -5°C / -6°C 180º 12kt 1500m. Runway 22: Visual range is 2000m. Mist Vertical Visibility of 0ft. 1028 No Significant change UACC 041637Z 18006MPS 1500 R22/P2000 BR OVC002 M05/M06 Q1028 NOSIG RMK QBB080 QFE739/0986
LIFR -4°C / -5°C 190º 10kt 6000m - Overcast 400ft 1028 No Significant change UACC 041600Z 19005MPS 6000 OVC004 M04/M05 Q1028 NOSIG RMK QBB130 QFE739/0986
IFR -3°C / -5°C 190º 8kt >10km - Overcast 700ft 1028 No Significant change UACC 041530Z 19004MPS 9999 OVC007 M03/M05 Q1028 NOSIG RMK QFE739/0986
IFR -2°C / -4°C 210º 8kt >10km - Overcast 600ft 1028 No Significant change UACC 041500Z 21004MPS 9999 OVC006 M02/M04 Q1028 NOSIG RMK QBB180 QFE739/0986
IFR -2°C / -4°C 210º 8kt >10km - Overcast 600ft 1028 No Significant change UACC 041430Z 21004MPS 9999 OVC006 M02/M04 Q1028 NOSIG RMK QBB200 QFE740/0986
IFR -2°C / -4°C 220º 10kt >10km - Overcast 700ft 1028 No Significant change UACC 041400Z 22005MPS 9999 OVC007 M02/M04 Q1028 NOSIG RMK QFE740/0986
IFR -2°C / -4°C 230º 10kt >10km - Overcast 700ft 1029 No Significant change UACC 041330Z 23005MPS 9999 OVC007 M02/M04 Q1029 NOSIG RMK QFE740/0987
IFR -2°C / -4°C 230º 12kt >10km - Overcast 800ft 1028 No Significant change UACC 041300Z 23006MPS 9999 OVC008 M02/M04 Q1028 NOSIG RMK QFE740/0986
IFR -2°C / -5°C 220º 12kt >10km - Overcast 900ft 1028 No Significant change UACC 041230Z 22006MPS 9999 OVC009 M02/M05 Q1028 NOSIG RMK QFE740/0986
MVFR -2°C / -4°C 230º 12kt >10km - Overcast 1000ft 1029 No Significant change UACC 041200Z 23006MPS 9999 OVC010 M02/M04 Q1029 NOSIG RMK QFE740/0987
MVFR -2°C / -5°C 220º 12kt >10km - Overcast 1000ft 1029 No Significant change UACC 041130Z 22006MPS 9999 OVC010 M02/M05 Q1029 NOSIG RMK QFE740/0987
MVFR -2°C / -4°C 220º 12kt >10km - Overcast 1000ft 1029 No Significant change UACC 041100Z 22006MPS 9999 OVC010 M02/M04 Q1029 NOSIG RMK QFE740/0987
MVFR -2°C / -4°C 230º 14kt >10km - Overcast 1000ft 1029 No Significant change UACC 041030Z 23007MPS 9999 OVC010 M02/M04 Q1029 NOSIG RMK QFE740/0987
MVFR -2°C / -5°C 240º 14kt >10km - Overcast 1000ft 1028 No Significant change UACC 041000Z 24007MPS 9999 OVC010 M02/M05 Q1028 NOSIG RMK QFE740/0986
MVFR -2°C / -5°C 250º 14kt >10km - Broken Clouds 1100ft 1028 No Significant change UACC 040930Z 25007MPS 9999 BKN011 M02/M05 Q1028 NOSIG RMK QFE739/0986
MVFR -2°C / -5°C 250º 14kt >10km - Scattered Clouds 1200ft
Broken Clouds 2600ft
1028 No Significant change UACC 040900Z 25007MPS 9999 SCT012 BKN026 M02/M05 Q1028 NOSIG RMK QFE739/0986
MVFR -2°C / -5°C 250º 12kt >10km - Scattered Clouds 1200ft
Broken Clouds 2600ft
1028 No Significant change UACC 040830Z 25006MPS 9999 SCT012 BKN026 M02/M05 Q1028 NOSIG RMK QFE739/0986

LIFR

-3°C / -4°C

[Mais]
Vento 170º 8kt
Visibilidade 5000m
Tempo Mist
Nuvens Vertical Visibility of 0ft.
Pressão 1027
Mudança No Significant change
Bruto UACC 042000Z 17004MPS 5000 BR OVC002 M03/M04 Q1027 NOSIG RMK QBB060 QFE738/0985

LIFR

-4°C / -4°C

[Mais]
Vento 180º 8kt
Visibilidade 4800m
Tempo Mist
Nuvens Vertical Visibility of 0ft.
Pressão 1027
Mudança No Significant change
Bruto UACC 041930Z 18004MPS 4800 BR OVC002 M04/M04 Q1027 NOSIG RMK QBB080 QFE739/0985

LIFR

-4°C / -5°C

[Mais]
Vento 180º 10kt
Visibilidade 1200m. Runway 22: Visual range is 2000m and increasing.
Tempo Mist
Nuvens Vertical Visibility of 0ft.
Pressão 1027
Mudança No Significant change
Bruto UACC 041900Z 18005MPS 1200 R22/P2000U BR OVC002 M04/M05 Q1027 NOSIG RMK QBB060 QFE739/0985

LIFR

-4°C / -5°C

[Mais]
Vento 180º 8kt
Visibilidade 2100m
Tempo Mist
Nuvens Vertical Visibility of 0ft.
Pressão 1027
Mudança No Significant change
Bruto UACC 041830Z 18004MPS 2100 BR OVC002 M04/M05 Q1027 NOSIG RMK QBB060 QFE739/0985

LIFR

-4°C / -5°C

[Mais]
Vento 190º 6kt
Visibilidade 5000m
Tempo Mist
Nuvens Vertical Visibility of 0ft.
Pressão 1028
Mudança No Significant change
Bruto UACC 041800Z 19003MPS 5000 BR OVC002 M04/M05 Q1028 NOSIG RMK QBB070 QFE739/0986

LIFR

-5°C / -6°C

[Mais]
Vento 180º 8kt
Visibilidade 7000m
Tempo -
Nuvens Overcast 300ft
Pressão 1028
Mudança No Significant change
Bruto UACC 041730Z 18004MPS 7000 OVC003 M05/M06 Q1028 NOSIG RMK QBB110 QFE739/0986

LIFR

-5°C / -5°C

[Mais]
Vento 190º 8kt
Visibilidade 1100m. Runway 22: Visual range is 2000m and decreasing.
Tempo Mist
Nuvens Vertical Visibility of 0ft.
Pressão 1028
Mudança No Significant change
Bruto UACC 041700Z 19004MPS 1100 R22/P2000D BR OVC002 M05/M05 Q1028 NOSIG RMK QBB070 QFE739/0986

LIFR

-5°C / -6°C

[Mais]
Vento 180º 12kt
Visibilidade 1500m. Runway 22: Visual range is 2000m.
Tempo Mist
Nuvens Vertical Visibility of 0ft.
Pressão 1028
Mudança No Significant change
Bruto UACC 041637Z 18006MPS 1500 R22/P2000 BR OVC002 M05/M06 Q1028 NOSIG RMK QBB080 QFE739/0986

LIFR

-4°C / -5°C

[Mais]
Vento 190º 10kt
Visibilidade 6000m
Tempo -
Nuvens Overcast 400ft
Pressão 1028
Mudança No Significant change
Bruto UACC 041600Z 19005MPS 6000 OVC004 M04/M05 Q1028 NOSIG RMK QBB130 QFE739/0986

IFR

-3°C / -5°C

[Mais]
Vento 190º 8kt
Visibilidade >10km
Tempo -
Nuvens Overcast 700ft
Pressão 1028
Mudança No Significant change
Bruto UACC 041530Z 19004MPS 9999 OVC007 M03/M05 Q1028 NOSIG RMK QFE739/0986

IFR

-2°C / -4°C

[Mais]
Vento 210º 8kt
Visibilidade >10km
Tempo -
Nuvens Overcast 600ft
Pressão 1028
Mudança No Significant change
Bruto UACC 041500Z 21004MPS 9999 OVC006 M02/M04 Q1028 NOSIG RMK QBB180 QFE739/0986

IFR

-2°C / -4°C

[Mais]
Vento 210º 8kt
Visibilidade >10km
Tempo -
Nuvens Overcast 600ft
Pressão 1028
Mudança No Significant change
Bruto UACC 041430Z 21004MPS 9999 OVC006 M02/M04 Q1028 NOSIG RMK QBB200 QFE740/0986

IFR

-2°C / -4°C

[Mais]
Vento 220º 10kt
Visibilidade >10km
Tempo -
Nuvens Overcast 700ft
Pressão 1028
Mudança No Significant change
Bruto UACC 041400Z 22005MPS 9999 OVC007 M02/M04 Q1028 NOSIG RMK QFE740/0986

IFR

-2°C / -4°C

[Mais]
Vento 230º 10kt
Visibilidade >10km
Tempo -
Nuvens Overcast 700ft
Pressão 1029
Mudança No Significant change
Bruto UACC 041330Z 23005MPS 9999 OVC007 M02/M04 Q1029 NOSIG RMK QFE740/0987

IFR

-2°C / -4°C

[Mais]
Vento 230º 12kt
Visibilidade >10km
Tempo -
Nuvens Overcast 800ft
Pressão 1028
Mudança No Significant change
Bruto UACC 041300Z 23006MPS 9999 OVC008 M02/M04 Q1028 NOSIG RMK QFE740/0986

IFR

-2°C / -5°C

[Mais]
Vento 220º 12kt
Visibilidade >10km
Tempo -
Nuvens Overcast 900ft
Pressão 1028
Mudança No Significant change
Bruto UACC 041230Z 22006MPS 9999 OVC009 M02/M05 Q1028 NOSIG RMK QFE740/0986

MVFR

-2°C / -4°C

[Mais]
Vento 230º 12kt
Visibilidade >10km
Tempo -
Nuvens Overcast 1000ft
Pressão 1029
Mudança No Significant change
Bruto UACC 041200Z 23006MPS 9999 OVC010 M02/M04 Q1029 NOSIG RMK QFE740/0987

MVFR

-2°C / -5°C

[Mais]
Vento 220º 12kt
Visibilidade >10km
Tempo -
Nuvens Overcast 1000ft
Pressão 1029
Mudança No Significant change
Bruto UACC 041130Z 22006MPS 9999 OVC010 M02/M05 Q1029 NOSIG RMK QFE740/0987

MVFR

-2°C / -4°C

[Mais]
Vento 220º 12kt
Visibilidade >10km
Tempo -
Nuvens Overcast 1000ft
Pressão 1029
Mudança No Significant change
Bruto UACC 041100Z 22006MPS 9999 OVC010 M02/M04 Q1029 NOSIG RMK QFE740/0987

MVFR

-2°C / -4°C

[Mais]
Vento 230º 14kt
Visibilidade >10km
Tempo -
Nuvens Overcast 1000ft
Pressão 1029
Mudança No Significant change
Bruto UACC 041030Z 23007MPS 9999 OVC010 M02/M04 Q1029 NOSIG RMK QFE740/0987

MVFR

-2°C / -5°C

[Mais]
Vento 240º 14kt
Visibilidade >10km
Tempo -
Nuvens Overcast 1000ft
Pressão 1028
Mudança No Significant change
Bruto UACC 041000Z 24007MPS 9999 OVC010 M02/M05 Q1028 NOSIG RMK QFE740/0986

MVFR

-2°C / -5°C

[Mais]
Vento 250º 14kt
Visibilidade >10km
Tempo -
Nuvens Broken Clouds 1100ft
Pressão 1028
Mudança No Significant change
Bruto UACC 040930Z 25007MPS 9999 BKN011 M02/M05 Q1028 NOSIG RMK QFE739/0986

MVFR

-2°C / -5°C

[Mais]
Vento 250º 14kt
Visibilidade >10km
Tempo -
Nuvens Scattered Clouds 1200ft
Broken Clouds 2600ft
Pressão 1028
Mudança No Significant change
Bruto UACC 040900Z 25007MPS 9999 SCT012 BKN026 M02/M05 Q1028 NOSIG RMK QFE739/0986

MVFR

-2°C / -5°C

[Mais]
Vento 250º 12kt
Visibilidade >10km
Tempo -
Nuvens Scattered Clouds 1200ft
Broken Clouds 2600ft
Pressão 1028
Mudança No Significant change
Bruto UACC 040830Z 25006MPS 9999 SCT012 BKN026 M02/M05 Q1028 NOSIG RMK QFE739/0986

TAF para 51.02°N 71.47°L (UACC)

From till


Maximum Temperature -1ºC on . Minimum Temperature -8ºC on .
From till Wind 180º 8kt. Visibility 804.670m. freezing Fog . Obscured Sky.
Temporarly from till Wind variable 4kt. Visibility 193.121m. freezing Fog . Obscured Sky.
From till Wind 160º 8kt. Visibility 6000m. Scattered Clouds 1100ft. Broken Clouds 3000ft.
Temporarly from till Wind variable 4kt. Broken Clouds 700ft.

Bruto: TAF UACC 041700Z 0418/0518 18004MPS 0800 FZFG VV002 TXM01/0509Z TNM08/0501Z TEMPO 0418/0505 VRB02MPS 0200 FZFG VV001 FM050600 16004MPS 6000 SCT011 BKN030 TEMPO 0506/0518 VRB02MPS BKN007

Radar e precipitação nowcast para 51.02°N 71.47°L

Chuvisco
Leve
Moderado
Forte
Muito forte
Granizo

O marcador do lugar é colocado em 51.02°N 71.47°L. Esta animação mostra o radar de precipitação para a última hora, assim como a 1h previsão. A queda de neve pode ser invisível para o radar. A intensidade da precipitação é codificada por cores, variando do azul claro ao laranja.

Imagens atuais de satélite e precipitação para 51.02°N 71.47°L

O marcador de lugar é colocado em 51.02°N 71.47°L. [Mais]

A imagem de satélite em tempo real combina luz visível durante o dia com radiação infravermelha durante a noite. À noite, a imagem não é escura, pois a radiação infravermelha pode detectar diferenças de temperatura. Infelizmente, nuvens baixas e neblina são difíceis de distinguir das temperaturas do solo e, portanto, podem ser quase invisíveis durante a noite. As imagens de satélite Meteosat para a Europa são atualizadas em tempo real a cada 5 minutos. GOES-16/GOES-17 ( América do Norte e do Sul) e Himawari (Ásia) são atualizadas a cada 10 minutos.

Copyright 2021 EUMETSAT / meteoblue. / Copyright 2021 meteoblue